Total_Precipitation_Accumulation
0.11 0.11 0.11 0.12 0.12 0.13 0.14 0.16 0.17 0.16 0.16 0.16 0.17 0.18 0.21 0.23 0.21 0.17 0.14 0.12 0.08 0.08 0.14 0.28 0.51 0.74 0.93 1.03 1.03 0.88 0.80 0.67 0.50 0.38 0.33 0.35 0.33 0.26 0.18 0.15 0.12 0.08 0.07
0.03 0.03 0.03 0.02 0.02 0.02 0.02 0.03 0.04 0.05 0.06 0.08 0.09 0.11 0.13 0.16 0.18 0.19 0.19 0.21 0.16 0.13 0.14 0.19 0.31 0.52 0.80 1.01 1.10 1.06 0.93 0.84 0.66 0.48 0.38 0.34 0.34 0.31 0.22 0.16 0.12 0.09 0.06
0.01 0.01 0.01 0.01 0.00 0.00 0.00 0.00 0.00 0.01 0.01 0.02 0.03 0.05 0.07 0.08 0.12 0.15 0.18 0.22 0.23 0.20 0.17 0.20 0.25 0.39 0.65 0.92 1.08 1.21 1.12 0.98 0.86 0.72 0.51 0.36 0.32 0.33 0.27 0.20 0.14 0.11 0.08
0.00 0.00 0.00 0.00 0.00 0.00 0.01 0.01 0.01 0.00 0.01 0.01 0.02 0.03 0.05 0.06 0.06 0.09 0.14 0.16 0.19 0.21 0.20 0.20 0.27 0.39 0.54 0.78 1.02 1.26 1.36 1.20 1.09 1.03 0.83 0.57 0.37 0.32 0.30 0.24 0.19 0.13 0.11
0.00 0.00 0.00 0.00 0.00 0.01 0.01 0.02 0.02 0.01 0.01 0.01 0.02 0.02 0.02 0.04 0.05 0.08 0.11 0.14 0.17 0.18 0.20 0.21 0.24 0.32 0.44 0.63 0.94 1.26 1.58 1.60 1.41 1.28 1.11 0.91 0.64 0.41 0.33 0.27 0.24 0.18 0.13
0.00 0.00 0.00 0.00 0.00 0.00 0.00 0.01 0.01 0.01 0.02 0.01 0.02 0.01 0.00 0.01 0.02 0.05 0.07 0.12 0.16 0.17 0.18 0.23 0.26 0.23 0.25 0.34 0.55 0.89 1.24 1.56 1.61 1.51 1.39 1.19 0.95 0.67 0.45 0.32 0.28 0.25 0.20
0.00 0.00 0.00 0.00 0.00 0.01 0.01 0.01 0.02 0.02 0.02 0.01 0.02 0.01 0.00 0.00 0.01 0.02 0.06 0.11 0.15 0.21 0.27 0.31 0.37 0.35 0.27 0.25 0.27 0.37 0.67 1.12 1.45 1.59 1.57 1.50 1.25 0.94 0.67 0.44 0.33 0.32 0.26
0.00 0.00 0.00 0.00 0.00 0.00 0.00 0.01 0.02 0.04 0.03 0.02 0.05 0.07 0.02 0.00 0.00 0.01 0.04 0.08 0.15 0.25 0.36 0.41 0.45 0.46 0.41 0.32 0.22 0.21 0.29 0.60 1.09 1.49 1.58 1.56 1.57 1.33 0.92 0.63 0.45 0.38 0.33
0.00 0.00 0.00 0.00 0.00 0.01 0.01 0.01 0.01 0.03 0.05 0.03 0.06 0.18 0.19 0.09 0.02 0.00 0.01 0.04 0.07 0.11 0.18 0.27 0.34 0.38 0.44 0.45 0.36 0.27 0.22 0.31 0.63 1.16 1.57 1.60 1.58 1.63 1.36 0.89 0.58 0.41 0.35
0.00 0.00 0.00 0.00 0.00 0.01 0.01 0.02 0.02 0.04 0.08 0.09 0.06 0.09 0.16 0.18 0.17 0.07 0.01 0.02 0.02 0.03 0.05 0.09 0.15 0.22 0.32 0.42 0.46 0.40 0.31 0.26 0.39 0.69 1.22 1.65 1.63 1.64 1.68 1.29 0.82 0.52 0.39
0.00 0.00 0.00 0.00 0.00 0.01 0.02 0.02 0.03 0.05 0.09 0.13 0.13 0.11 0.10 0.10 0.13 0.17 0.07 0.02 0.03 0.03 0.03 0.04 0.07 0.10 0.15 0.25 0.34 0.41 0.41 0.30 0.34 0.49 0.77 1.32 1.77 1.82 1.82 1.63 1.14 0.70 0.46
0.00 0.00 0.00 0.00 0.01 0.01 0.02 0.04 0.06 0.07 0.09 0.12 0.14 0.16 0.18 0.19 0.14 0.17 0.13 0.04 0.02 0.03 0.04 0.04 0.05 0.06 0.08 0.14 0.22 0.33 0.37 0.35 0.33 0.39 0.48 0.79 1.44 1.97 2.06 1.85 1.45 0.99 0.60
0.01 0.00 0.01 0.01 0.01 0.03 0.04 0.06 0.09 0.10 0.11 0.14 0.16 0.16 0.16 0.15 0.14 0.16 0.17 0.09 0.04 0.02 0.03 0.04 0.05 0.07 0.08 0.10 0.16 0.22 0.27 0.33 0.36 0.38 0.36 0.39 0.72 1.48 2.16 2.27 1.86 1.33 0.89
0.01 0.01 0.01 0.01 0.02 0.04 0.07 0.10 0.12 0.12 0.14 0.16 0.16 0.17 0.17 0.13 0.14 0.16 0.18 0.19 0.14 0.05 0.03 0.03 0.04 0.06 0.09 0.11 0.14 0.17 0.19 0.25 0.31 0.34 0.33 0.32 0.38 0.69 1.41 2.24 2.62 2.13 1.44
0.01 0.01 0.01 0.02 0.04 0.07 0.09 0.12 0.14 0.16 0.19 0.21 0.21 0.21 0.22 0.20 0.19 0.18 0.18 0.22 0.27 0.18 0.06 0.03 0.05 0.06 0.08 0.12 0.16 0.16 0.16 0.19 0.24 0.29 0.30 0.30 0.33 0.41 0.68 1.29 2.16 2.70 2.39
0.01 0.01 0.03 0.05 0.09 0.13 0.16 0.17 0.18 0.19 0.23 0.25 0.27 0.28 0.29 0.28 0.26 0.25 0.24 0.22 0.23 0.24 0.14 0.04 0.05 0.07 0.09 0.11 0.16 0.17 0.18 0.19 0.20 0.23 0.27 0.27 0.30 0.36 0.48 0.74 1.27 2.10 2.53
0.02 0.03 0.06 0.09 0.13 0.19 0.23 0.27 0.28 0.30 0.30 0.28 0.29 0.33 0.34 0.33 0.32 0.29 0.29 0.27 0.24 0.25 0.21 0.06 0.03 0.07 0.12 0.15 0.17 0.17 0.18 0.17 0.16 0.18 0.23 0.26 0.28 0.33 0.43 0.58 0.80 1.32 2.07
0.05 0.07 0.11 0.15 0.19 0.23 0.27 0.35 0.41 0.44 0.46 0.45 0.43 0.42 0.42 0.43 0.44 0.41 0.40 0.35 0.29 0.26 0.25 0.15 0.06 0.06 0.12 0.19 0.25 0.24 0.21 0.17 0.14 0.15 0.18 0.22 0.26 0.29 0.37 0.47 0.60 0.85 1.36
0.09 0.13 0.20 0.28 0.33 0.35 0.36 0.37 0.48 0.61 0.68 0.70 0.69 0.68 0.65 0.62 0.62 0.60 0.57 0.48 0.37 0.29 0.25 0.21 0.12 0.08 0.12 0.22 0.31 0.33 0.28 0.21 0.15 0.16 0.18 0.20 0.23 0.25 0.29 0.36 0.46 0.60 0.83
0.19 0.26 0.33 0.44 0.51 0.60 0.71 0.71 0.69 0.63 0.64 0.72 0.78 0.81 0.87 0.89 0.88 0.82 0.77 0.62 0.46 0.34 0.27 0.24 0.19 0.14 0.13 0.21 0.37 0.42 0.38 0.30 0.20 0.16 0.18 0.19 0.22 0.24 0.24 0.24 0.27 0.39 0.62
0.25 0.33 0.38 0.40 0.42 0.64 1.09 1.22 0.90 0.52 0.41 0.45 0.52 0.58 0.69 0.84 0.93 0.95 0.94 0.78 0.59 0.47 0.37 0.31 0.25 0.21 0.18 0.24 0.38 0.46 0.50 0.47 0.39 0.29 0.22 0.17 0.18 0.18 0.19 0.22 0.27 0.35 0.49
0.18 0.28 0.35 0.32 0.31 0.52 0.97 1.07 0.65 0.30 0.24 0.27 0.31 0.34 0.40 0.55 0.64 0.71 0.80 0.80 0.80 0.75 0.63 0.49 0.39 0.32 0.28 0.30 0.37 0.51 0.54 0.56 0.55 0.45 0.37 0.30 0.24 0.21 0.20 0.19 0.22 0.27 0.37
0.11 0.16 0.18 0.15 0.18 0.38 0.74 0.82 0.42 0.12 0.11 0.14 0.16 0.17 0.19 0.29 0.40 0.43 0.47 0.53 0.64 0.77 0.84 0.76 0.68 0.57 0.43 0.37 0.38 0.45 0.53 0.58 0.60 0.59 0.55 0.53 0.46 0.35 0.28 0.27 0.30 0.27 0.29
0.09 0.11 0.09 0.05 0.06 0.18 0.55 0.69 0.33 0.06 0.06 0.09 0.12 0.11 0.09 0.15 0.30 0.29 0.26 0.34 0.45 0.61 0.81 0.88 0.91 0.81 0.60 0.44 0.40 0.47 0.57 0.60 0.65 0.75 0.75 0.71 0.63 0.49 0.44 0.40 0.38 0.30 0.25
0.07 0.09 0.07 0.03 0.01 0.06 0.38 0.67 0.39 0.06 0.05 0.07 0.10 0.12 0.09 0.08 0.19 0.14 0.12 0.20 0.27 0.41 0.54 0.68 0.73 0.69 0.60 0.53 0.50 0.50 0.59 0.67 0.80 0.92 0.92 0.88 0.83 0.62 0.57 0.58 0.53 0.40 0.28
0.02 0.04 0.04 0.02 0.00 0.01 0.19 0.58 0.54 0.13 0.05 0.05 0.06 0.08 0.14 0.13 0.12 0.09 0.07 0.11 0.18 0.24 0.27 0.33 0.37 0.42 0.44 0.44 0.51 0.59 0.68 0.72 0.83 1.01 1.03 0.93 0.98 0.80 0.75 0.73 0.58 0.41 0.30